User: anonymous   Login
Location: Vancouver
(49.2500°N, 123.1330°W)
Time: 12:40:42
(UTC-07:00)
Language:

AO-27 - Orbit

View from above orbital plane
View from above orbital plane
View from above satellite
View from above satellite

Ground track
Ground track

The orbit data is extracted from the following two-line orbital elements,

1 22825U 93061C   16148.86312218 +.00000019 +00000-0 +24906-4 0  9994
2 22825 098.7576 104.9858 0008901 024.5331 335.6273 14.29955855182063
Epoch (UTC): 27 May 2016 20:42:53
Eccentricity: 0.0008901
inclination: 98.7576°
perigee height: 785 km
apogee height: 798 km
right ascension of ascending node: 104.9858°
argument of perigee: 24.5331°
revolutions per day: 14.29955855
mean anomaly at epoch: 335.6273°
orbit number at epoch: 18206

The dashed part of the orbit path shows where the satellite is in the earth's shadow,  

DLR